Time,TemperatureF,DewpointF,PressureIn,WindDirection,WindDirectionDegrees,WindSpeedMPH,WindSpeedGustMPH,Humidity,HourlyPrecipIn,Conditions,Clouds,dailyrainin,SoftwareType,DateUTC
2013-01-20 00:04:00,42.0,34.0,29.85,SW,232,3.0,7.0,72,0.00,,,0.00,,2013-01-20 05:04:00,
2013-01-20 00:12:00,42.0,34.0,29.85,SW,232,3.0,7.0,72,0.00,,,0.00,,2013-01-20 05:12:00,
2013-01-20 00:22:00,42.0,34.0,29.85,WNW,292,11.0,11.0,72,0.00,,,0.00,,2013-01-20 05:22:00,
2013-01-20 00:33:00,42.0,33.0,29.86,West,274,11.0,12.0,71,0.00,,,0.00,,2013-01-20 05:33:00,
2013-01-20 00:42:00,42.0,33.0,29.86,West,274,11.0,12.0,71,0.00,,,0.00,,2013-01-20 05:42:00,
2013-01-20 00:53:00,41.0,32.0,29.86,West,274,6.0,12.0,71,0.00,,,0.00,,2013-01-20 05:53:00,
2013-01-20 01:02:00,41.0,32.0,29.87,NW,315,12.0,13.0,70,0.00,,,0.00,,2013-01-20 06:02:00,
2013-01-20 01:12:00,41.0,32.0,29.87,NW,315,12.0,13.0,70,0.00,,,0.00,,2013-01-20 06:12:00,
2013-01-20 01:22:00,40.0,31.0,29.87,WNW,292,5.0,14.0,70,0.00,,,0.00,,2013-01-20 06:22:00,
2013-01-20 01:33:00,39.0,30.0,29.87,WNW,291,4.0,5.0,70,0.00,,,0.00,,2013-01-20 06:33:00,
2013-01-20 01:43:00,39.0,30.0,29.87,WNW,291,4.0,5.0,70,0.00,,,0.00,,2013-01-20 06:43:00,
2013-01-20 01:52:00,39.0,30.0,29.87,WNW,282,7.0,8.0,70,0.00,,,0.00,,2013-01-20 06:52:00,
2013-01-20 02:02:00,39.0,29.0,29.89,West,270,10.0,13.0,66,0.00,,,0.00,,2013-01-20 07:02:00,
2013-01-20 02:12:00,39.0,29.0,29.89,West,270,10.0,13.0,66,0.00,,,0.00,,2013-01-20 07:12:00,
2013-01-20 02:22:00,38.0,28.0,29.90,West,277,5.0,10.0,66,0.00,,,0.00,,2013-01-20 07:22:00,
2013-01-20 02:32:00,37.0,26.0,29.91,WNW,291,13.0,14.0,63,0.00,,,0.00,,2013-01-20 07:32:00,
2013-01-20 02:42:00,37.0,26.0,29.91,WNW,291,13.0,14.0,63,0.00,,,0.00,,2013-01-20 07:42:00,
2013-01-20 02:52:00,37.0,25.0,29.92,West,279,11.0,14.0,62,0.00,,,0.00,,2013-01-20 07:52:00,
2013-01-20 03:02:00,34.0,20.0,29.96,NW,313,11.0,17.0,57,0.00,,,0.00,,2013-01-20 08:02:00,
2013-01-20 03:12:00,34.0,20.0,29.96,NW,313,11.0,17.0,57,0.00,,,0.00,,2013-01-20 08:12:00,
2013-01-20 03:22:00,33.0,19.0,29.97,NW,305,11.0,15.0,57,0.00,,,0.00,,2013-01-20 08:22:00,
2013-01-20 03:32:00,31.0,18.0,29.99,West,270,13.0,15.0,57,0.00,,,0.00,,2013-01-20 08:32:00,
2013-01-20 03:42:00,31.0,18.0,29.99,West,270,13.0,15.0,57,0.00,,,0.00,,2013-01-20 08:42:00,
2013-01-20 03:52:00,30.0,17.0,29.99,WNW,285,6.0,16.0,57,0.00,,,0.00,,2013-01-20 08:52:00,
2013-01-20 04:02:00,29.0,16.0,30.01,WNW,292,5.0,10.0,57,0.00,,,0.00,,2013-01-20 09:02:00,
2013-01-20 04:12:00,29.0,16.0,30.01,WNW,292,5.0,10.0,57,0.00,,,0.00,,2013-01-20 09:12:00,
2013-01-20 04:22:00,29.0,16.0,30.02,WNW,295,10.0,15.0,57,0.00,,,0.00,,2013-01-20 09:22:00,
2013-01-20 04:33:00,28.0,16.0,30.03,WNW,292,0.0,11.0,59,0.00,,,0.00,,2013-01-20 09:33:00,
2013-01-20 04:42:00,28.0,16.0,30.03,WNW,292,0.0,11.0,59,0.00,,,0.00,,2013-01-20 09:42:00,
2013-01-20 04:52:00,28.0,16.0,30.03,WNW,300,6.0,7.0,59,0.00,,,0.00,,2013-01-20 09:52:00,
2013-01-20 05:03:00,27.0,15.0,30.04,NW,315,2.0,6.0,59,0.00,,,0.00,,2013-01-20 10:03:00,
2013-01-20 05:12:00,27.0,15.0,30.04,NW,315,2.0,6.0,59,0.00,,,0.00,,2013-01-20 10:12:00,
2013-01-20 05:22:00,27.0,15.0,30.05,West,270,4.0,7.0,60,0.00,,,0.00,,2013-01-20 10:22:00,
2013-01-20 05:32:00,26.0,13.0,30.06,West,270,5.0,12.0,58,0.00,,,0.00,,2013-01-20 10:32:00,
2013-01-20 05:42:00,26.0,13.0,30.06,West,270,5.0,12.0,58,0.00,,,0.00,,2013-01-20 10:42:00,
2013-01-20 05:52:00,25.0,12.0,30.07,West,270,5.0,8.0,57,0.00,,,0.00,,2013-01-20 10:52:00,
2013-01-20 06:03:00,25.0,12.0,30.09,NW,315,6.0,7.0,57,0.00,,,0.00,,2013-01-20 11:03:00,
2013-01-20 06:12:00,24.0,11.0,30.09,WNW,295,5.0,6.0,58,0.00,,,0.00,,2013-01-20 11:12:00,
2013-01-20 06:22:00,24.0,11.0,30.09,WNW,295,5.0,6.0,58,0.00,,,0.00,,2013-01-20 11:22:00,
2013-01-20 06:33:00,23.0,11.0,30.10,WNW,292,2.0,7.0,59,0.00,,,0.00,,2013-01-20 11:33:00,
2013-01-20 06:43:00,23.0,11.0,30.10,WNW,292,2.0,7.0,59,0.00,,,0.00,,2013-01-20 11:43:00,
2013-01-20 06:53:00,23.0,11.0,30.10,WNW,292,5.0,7.0,59,0.00,,,0.00,,2013-01-20 11:53:00,
2013-01-20 07:03:00,22.0,10.0,30.12,WSW,247,7.0,10.0,59,0.00,,,0.00,,2013-01-20 12:03:00,
2013-01-20 07:12:00,22.0,10.0,30.12,WSW,247,7.0,10.0,59,0.00,,,0.00,,2013-01-20 12:12:00,
2013-01-20 07:23:00,22.0,10.0,30.13,West,270,4.0,4.0,60,0.00,,,0.00,,2013-01-20 12:23:00,
2013-01-20 07:33:00,21.0,9.0,30.15,WNW,292,9.0,9.0,60,0.00,,,0.00,,2013-01-20 12:33:00,
2013-01-20 07:43:00,21.0,9.0,30.15,WNW,292,9.0,9.0,60,0.00,,,0.00,,2013-01-20 12:43:00,
2013-01-20 07:52:00,21.0,9.0,30.15,WNW,292,1.0,9.0,60,0.00,,,0.00,,2013-01-20 12:52:00,
2013-01-20 08:03:00,20.0,8.0,30.16,NW,315,5.0,7.0,60,0.00,,,0.00,,2013-01-20 13:03:00,
2013-01-20 08:12:00,20.0,8.0,30.16,NW,315,5.0,7.0,60,0.00,,,0.00,,2013-01-20 13:12:00,
2013-01-20 08:23:00,20.0,9.0,30.16,WNW,292,4.0,7.0,61,0.00,,,0.00,,2013-01-20 13:23:00,
2013-01-20 08:33:00,20.0,9.0,30.18,WNW,292,7.0,7.0,61,0.00,,,0.00,,2013-01-20 13:33:00,
2013-01-20 08:43:00,20.0,9.0,30.18,WNW,292,7.0,7.0,61,0.00,,,0.00,,2013-01-20 13:43:00,
2013-01-20 08:52:00,20.0,9.0,30.19,West,270,0.0,7.0,62,0.00,,,0.00,,2013-01-20 13:52:00,
2013-01-20 09:03:00,20.0,9.0,30.20,West,275,5.0,7.0,62,0.00,,,0.00,,2013-01-20 14:03:00,
2013-01-20 09:12:00,20.0,9.0,30.20,West,275,5.0,7.0,62,0.00,,,0.00,,2013-01-20 14:12:00,
2013-01-20 09:23:00,20.0,9.0,30.21,West,270,3.0,7.0,62,0.00,,,0.00,,2013-01-20 14:23:00,
2013-01-20 09:33:00,20.0,9.0,30.23,West,270,6.0,6.0,63,0.00,,,0.00,,2013-01-20 14:33:00,
2013-01-20 09:43:00,20.0,9.0,30.23,West,270,6.0,6.0,63,0.00,,,0.00,,2013-01-20 14:43:00,
2013-01-20 09:53:00,22.0,11.0,30.23,WNW,292,1.0,6.0,63,0.00,,,0.00,,2013-01-20 14:53:00,
2013-01-20 10:03:00,24.0,12.0,30.24,WNW,290,5.0,6.0,60,0.00,,,0.00,,2013-01-20 15:03:00,
2013-01-20 10:12:00,24.0,12.0,30.24,WNW,290,5.0,6.0,60,0.00,,,0.00,,2013-01-20 15:12:00,
2013-01-20 10:23:00,23.0,11.0,30.25,WNW,282,8.0,9.0,59,0.00,,,0.00,,2013-01-20 15:23:00,
2013-01-20 10:33:00,22.0,10.0,30.25,West,270,4.0,4.0,60,0.00,,,0.00,,2013-01-20 15:33:00,
2013-01-20 10:42:00,22.0,10.0,30.25,West,270,4.0,4.0,60,0.00,,,0.00,,2013-01-20 15:42:00,
2013-01-20 10:53:00,22.0,10.0,30.26,NNW,337,0.0,0.0,60,0.00,,,0.00,,2013-01-20 15:53:00,
2013-01-20 11:03:00,22.0,11.0,30.27,NW,315,3.0,3.0,61,0.00,,,0.00,,2013-01-20 16:03:00,
2013-01-20 11:12:00,22.0,11.0,30.27,NW,315,3.0,3.0,61,0.00,,,0.00,,2013-01-20 16:12:00,
2013-01-20 11:23:00,22.0,11.0,30.27,WNW,292,0.0,5.0,61,0.00,,,0.00,,2013-01-20 16:23:00,
2013-01-20 11:33:00,22.0,11.0,30.26,NW,315,2.0,2.0,61,0.00,,,0.00,,2013-01-20 16:33:00,
2013-01-20 11:43:00,22.0,11.0,30.26,NW,315,2.0,2.0,61,0.00,,,0.00,,2013-01-20 16:43:00,
2013-01-20 11:52:00,21.0,10.0,30.26,West,280,2.0,4.0,61,0.00,,,0.00,,2013-01-20 16:52:00,
2013-01-20 12:03:00,21.0,10.0,30.26,West,270,1.0,2.0,61,0.00,,,0.00,,2013-01-20 17:03:00,
2013-01-20 12:13:00,21.0,10.0,30.26,West,270,1.0,2.0,61,0.00,,,0.00,,2013-01-20 17:13:00,
2013-01-20 12:22:00,20.0,8.0,30.25,North,0,4.0,4.0,60,0.00,,,0.00,,2013-01-20 17:22:00,
2013-01-20 12:33:00,20.0,8.0,30.24,West,270,6.0,6.0,60,0.00,,,0.00,,2013-01-20 17:33:00,
2013-01-20 12:42:00,20.0,8.0,30.24,West,270,6.0,6.0,60,0.00,,,0.00,,2013-01-20 17:42:00,
2013-01-20 12:52:00,20.0,8.0,30.24,WNW,292,0.0,6.0,60,0.00,,,0.00,,2013-01-20 17:52:00,
2013-01-20 13:03:00,19.0,7.0,30.23,NW,315,1.0,5.0,59,0.00,,,0.00,,2013-01-20 18:03:00,
2013-01-20 13:13:00,19.0,7.0,30.23,West,270,1.0,4.0,59,0.00,,,0.00,,2013-01-20 18:13:00,
2013-01-20 13:23:00,19.0,7.0,30.23,West,270,1.0,4.0,59,0.00,,,0.00,,2013-01-20 18:23:00,
2013-01-20 13:33:00,19.0,7.0,30.21,West,270,1.0,4.0,58,0.00,,,0.00,,2013-01-20 18:33:00,
2013-01-20 13:43:00,19.0,7.0,30.21,West,270,1.0,4.0,58,0.00,,,0.00,,2013-01-20 18:43:00,
2013-01-20 13:53:00,19.0,6.0,30.21,WNW,292,3.0,3.0,57,0.00,,,0.00,,2013-01-20 18:53:00,
2013-01-20 14:03:00,18.0,6.0,30.22,West,276,1.0,7.0,58,0.00,,,0.00,,2013-01-20 19:03:00,
2013-01-20 14:12:00,18.0,6.0,30.22,West,276,1.0,7.0,58,0.00,,,0.00,,2013-01-20 19:12:00,
2013-01-20 14:22:00,19.0,6.0,30.22,WNW,292,7.0,7.0,57,0.00,,,0.00,,2013-01-20 19:22:00,
2013-01-20 14:33:00,19.0,6.0,30.22,West,270,7.0,7.0,57,0.00,,,0.00,,2013-01-20 19:33:00,
2013-01-20 14:43:00,19.0,6.0,30.22,West,270,7.0,7.0,57,0.00,,,0.00,,2013-01-20 19:43:00,
2013-01-20 14:52:00,19.0,6.0,30.22,West,270,7.0,7.0,57,0.00,,,0.00,,2013-01-20 19:52:00,
2013-01-20 15:03:00,19.0,6.0,30.22,West,270,2.0,3.0,56,0.00,,,0.00,,2013-01-20 20:03:00,
2013-01-20 15:12:00,19.0,6.0,30.22,West,270,2.0,3.0,56,0.00,,,0.00,,2013-01-20 20:12:00,
2013-01-20 15:23:00,20.0,7.0,30.22,West,270,3.0,5.0,56,0.00,,,0.00,,2013-01-20 20:23:00,
2013-01-20 15:33:00,21.0,8.0,30.23,WNW,292,7.0,7.0,56,0.00,,,0.00,,2013-01-20 20:33:00,
2013-01-20 15:42:00,21.0,8.0,30.23,WNW,292,7.0,7.0,56,0.00,,,0.00,,2013-01-20 20:42:00,
2013-01-20 15:53:00,21.0,7.0,30.23,West,270,4.0,7.0,55,0.00,,,0.00,,2013-01-20 20:53:00,
2013-01-20 16:04:00,21.0,7.0,30.22,WNW,296,2.0,3.0,55,0.00,,,0.00,,2013-01-20 21:04:00,
2013-01-20 16:13:00,21.0,7.0,30.22,WNW,296,2.0,3.0,55,0.00,,,0.00,,2013-01-20 21:13:00,
2013-01-20 16:23:00,22.0,8.0,30.22,WNW,292,0.0,3.0,55,0.00,,,0.00,,2013-01-20 21:23:00,
2013-01-20 16:33:00,22.0,8.0,30.22,WNW,292,4.0,4.0,55,0.00,,,0.00,,2013-01-20 21:33:00,
2013-01-20 16:43:00,22.0,8.0,30.22,WNW,292,4.0,4.0,55,0.00,,,0.00,,2013-01-20 21:43:00,
2013-01-20 16:53:00,23.0,9.0,30.22,WNW,292,5.0,5.0,55,0.00,,,0.00,,2013-01-20 21:53:00,
2013-01-20 17:03:00,23.0,9.0,30.22,West,270,0.0,2.0,55,0.00,,,0.00,,2013-01-20 22:03:00,
2013-01-20 17:13:00,23.0,9.0,30.22,West,270,0.0,2.0,55,0.00,,,0.00,,2013-01-20 22:13:00,
2013-01-20 17:23:00,24.0,11.0,30.22,West,270,0.0,1.0,56,0.00,,,0.00,,2013-01-20 22:23:00,
2013-01-20 17:33:00,23.0,10.0,30.23,WNW,292,1.0,3.0,56,0.00,,,0.00,,2013-01-20 22:33:00,
2013-01-20 17:43:00,23.0,10.0,30.23,WNW,292,1.0,3.0,56,0.00,,,0.00,,2013-01-20 22:43:00,
2013-01-20 17:52:00,23.0,10.0,30.23,West,270,0.0,1.0,56,0.00,,,0.00,,2013-01-20 22:52:00,
2013-01-20 18:03:00,23.0,10.0,30.24,West,270,2.0,2.0,57,0.00,,,0.00,,2013-01-20 23:03:00,
2013-01-20 18:13:00,23.0,10.0,30.24,West,270,2.0,2.0,57,0.00,,,0.00,,2013-01-20 23:13:00,
2013-01-20 18:23:00,23.0,10.0,30.24,WNW,292,1.0,4.0,57,0.00,,,0.00,,2013-01-20 23:23:00,
2013-01-20 18:33:00,23.0,10.0,30.24,West,270,0.0,4.0,57,0.00,,,0.00,,2013-01-20 23:33:00,
2013-01-20 18:43:00,23.0,10.0,30.24,West,270,0.0,4.0,57,0.00,,,0.00,,2013-01-20 23:43:00,
2013-01-20 18:53:00,22.0,9.0,30.24,West,270,3.0,5.0,57,0.00,,,0.00,,2013-01-20 23:53:00,
2013-01-20 19:03:00,22.0,9.0,30.23,West,270,3.0,3.0,57,0.00,,,0.00,,2013-01-21 00:03:00,
2013-01-20 19:13:00,22.0,9.0,30.23,West,270,3.0,3.0,57,0.00,,,0.00,,2013-01-21 00:13:00,
2013-01-20 19:23:00,22.0,10.0,30.24,WNW,292,3.0,3.0,58,0.00,,,0.00,,2013-01-21 00:23:00,
2013-01-20 19:33:00,22.0,10.0,30.24,WNW,292,4.0,4.0,58,0.00,,,0.00,,2013-01-21 00:33:00,
2013-01-20 19:43:00,22.0,10.0,30.24,WNW,292,4.0,4.0,58,0.00,,,0.00,,2013-01-21 00:43:00,
2013-01-20 19:54:00,22.0,10.0,30.23,West,270,0.0,2.0,58,0.00,,,0.00,,2013-01-21 00:54:00,
2013-01-20 20:03:00,22.0,10.0,30.23,West,270,2.0,2.0,58,0.00,,,0.00,,2013-01-21 01:03:00,
2013-01-20 20:13:00,22.0,10.0,30.23,West,270,2.0,2.0,58,0.00,,,0.00,,2013-01-21 01:13:00,
2013-01-20 20:23:00,22.0,10.0,30.23,West,270,0.0,4.0,58,0.00,,,0.00,,2013-01-21 01:23:00,
2013-01-20 20:33:00,22.0,10.0,30.23,WSW,247,1.0,2.0,58,0.00,,,0.00,,2013-01-21 01:33:00,
2013-01-20 20:43:00,22.0,10.0,30.23,WSW,247,1.0,2.0,58,0.00,,,0.00,,2013-01-21 01:43:00,
2013-01-20 20:53:00,22.0,10.0,30.23,WNW,292,0.0,3.0,58,0.00,,,0.00,,2013-01-21 01:53:00,
2013-01-20 21:03:00,21.0,9.0,30.22,West,270,3.0,5.0,59,0.00,,,0.00,,2013-01-21 02:03:00,
2013-01-20 21:12:00,21.0,9.0,30.22,West,270,3.0,5.0,59,0.00,,,0.00,,2013-01-21 02:12:00,
2013-01-20 21:23:00,21.0,9.0,30.22,West,270,2.0,2.0,59,0.00,,,0.00,,2013-01-21 02:23:00,
2013-01-20 21:33:00,21.0,9.0,30.22,West,270,0.0,2.0,59,0.00,,,0.00,,2013-01-21 02:33:00,
2013-01-20 21:43:00,21.0,9.0,30.22,West,270,0.0,2.0,59,0.00,,,0.00,,2013-01-21 02:43:00,
2013-01-20 21:53:00,21.0,9.0,30.22,WNW,292,2.0,5.0,59,0.00,,,0.00,,2013-01-21 02:53:00,
2013-01-20 22:03:00,21.0,9.0,30.22,West,270,0.0,0.0,59,0.00,,,0.00,,2013-01-21 03:03:00,
2013-01-20 22:13:00,21.0,9.0,30.22,West,270,0.0,0.0,59,0.00,,,0.00,,2013-01-21 03:13:00,
2013-01-20 22:23:00,21.0,9.0,30.21,WSW,247,1.0,2.0,60,0.00,,,0.00,,2013-01-21 03:23:00,
2013-01-20 22:33:00,21.0,9.0,30.21,WNW,292,0.0,0.0,60,0.00,,,0.00,,2013-01-21 03:33:00,
2013-01-20 22:43:00,21.0,9.0,30.21,WNW,292,0.0,0.0,60,0.00,,,0.00,,2013-01-21 03:43:00,
2013-01-20 22:54:00,20.0,8.0,30.20,West,270,1.0,3.0,60,0.00,,,0.00,,2013-01-21 03:54:00,
2013-01-20 23:03:00,20.0,8.0,30.21,West,270,0.0,1.0,60,0.00,,,0.00,,2013-01-21 04:03:00,
2013-01-20 23:12:00,20.0,8.0,30.21,West,270,0.0,1.0,60,0.00,,,0.00,,2013-01-21 04:12:00,
2013-01-20 23:23:00,20.0,8.0,30.20,West,270,0.0,5.0,60,0.00,,,0.00,,2013-01-21 04:23:00,
2013-01-20 23:33:00,20.0,8.0,30.21,WNW,292,3.0,4.0,60,0.00,,,0.00,,2013-01-21 04:33:00,
2013-01-20 23:43:00,20.0,8.0,30.21,WNW,292,3.0,4.0,60,0.00,,,0.00,,2013-01-21 04:43:00,
2013-01-20 23:53:00,20.0,8.0,30.20,NW,315,1.0,2.0,60,0.00,,,0.00,,2013-01-21 04:53:00,